sat.trackr.live / text

‹ back to catalog

ERNST

NORAD 60528 · 2024-149BN

PAYLOAD ACTIVE UNKNOWN

§ Identity

Operator
Country
GER
Launch date
2024-08-16
Launch site
AFWTR
Launch vehicle
Mass (kg)
RCS (m²)

External: N2YO · Heavens-Above · Gunter

§ Orbital elements

Epoch: 2026-05-25T05:11:21.179904Z

Period
93.60 min
Inclination
97.3804°
Eccentricity
0.0006245
Mean motion
15.38516704 rev/d
Perigee alt
446.2 km
Apogee alt
454.8 km
Semi-major
6,828.6 km
B*
3.6601e-4
RAAN
228.7754°
Arg perigee
33.2563°
Mean anomaly
326.9073°
Rev number
9,874

§ Raw data

ERNST1 60528U 24149BN  26145.21621736  .00013847  00000+0  36601-3 0  99982 60528  97.3804 228.7754 0006245  33.2563 326.9073 15.38516704 98746

JSON: /api/v1/satellites/60528 · /tle

For live sub-satellite position, see the globe view (requires WebGL).

§ Visibility from observer

Set your observer location to see the next 7 days of passes ≥ 10°. The values pass through the URL so the page stays shareable.

No JS? Fill the form by hand. The geolocation button needs JavaScript.

§ Radio — SatNOGS DB

ModeDescriptionDownlinkUplink
FSK AX.100 Mode 5 Mode U - FSK4k8 - Transmitter 401.100 MHz
FM Mode X - Transmitter 8.356 GHz

2 transmitters · refreshed weekly from db.satnogs.org